Location: Strawberry
(45.6646°N, 111.9596°W)
Time: 23:56:42
(UTC+00:00)

Courier 1B Rocket - Pass Details

Date: 05 October 2022
Orbit: 920 x 1202 km, 28.3° (Epoch: 03 December)

Event Time Altitude Azimuth Distance (km) Brightness Sun altitude
Rises 03:16:55 0° 236° (SW) 3,736 8.6 -24.1°
Reaches altitude 10° 03:20:45 10° 216° (SW) 2,730 7.5 -24.7°
Enters shadow 03:24:22 16° 182° (S) 2,269 6.7 -25.3°
Maximum altitude 03:24:33 16° 180° (S) 2,266 - -25.3°
Drops below altitude 10° 03:28:16 10° 144° (SE) 2,644 - -26.0°
Sets 03:31:53 0° 124° (SE) 3,561 - -26.5°
